• In Russia
  • List of Countries
  • For 7 days
  • Water Temperature
  • Satellite Maps
  • Weather Map
  • Weather Widgets
  • user-avatar
    Login

    Hourly Weather Eisenstadt

    Today, 22 April, Monday

    Time Temperature Precipitation Wind Pressure Humidity
    00:00 +10°C° 0 mm 1 mps 723 mmHg 59%
    01:00 +9°C° 0 mm 0 mps 722 mmHg 58%
    02:00 +9°C° 0 mm 0 mps 722 mmHg 60%
    03:00 +10°C° 0 mm 1 mps 721 mmHg 62%
    04:00 +9°C° 0 mm 1 mps 721 mmHg 64%
    05:00 +10°C° 0 mm 1 mps 721 mmHg 63%
    06:00 +11°C° 0 mm 0 mps 721 mmHg 61%
    07:00 +13°C° 0 mm 1 mps 720 mmHg 56%
    08:00 +14°C° 0 mm 1 mps 720 mmHg 53%
    09:00 +16°C° 0 mm 2 mps 720 mmHg 49%
    10:00 +17°C° 0 mm 2 mps 719 mmHg 46%
    11:00 +18°C° 0 mm 2 mps 719 mmHg 45%
    12:00 +19°C° 0 mm 2 mps 719 mmHg 45%
    13:00 +19°C° 0 mm 3 mps 719 mmHg 44%
    14:00 +20°C° 0 mm 2 mps 718 mmHg 44%
    15:00 +20°C° 0 mm 2 mps 718 mmHg 44%
    16:00 +20°C° 0 mm 2 mps 718 mmHg 45%
    17:00 +18°C° 0 mm 2 mps 718 mmHg 51%
    18:00 +17°C° 0 mm 2 mps 717 mmHg 56%
    19:00 +15°C° 0 mm 2 mps 717 mmHg 62%
    20:00 +14°C° 0 mm 2 mps 717 mmHg 66%
    21:00 +13°C° 0 mm 2 mps 718 mmHg 71%
    22:00 +12°C° 0 mm 2 mps 718 mmHg 75%
    23:00 +12°C° 0 mm 2 mps 718 mmHg 75%

    Tomorrow, 23 April, Tuesday

    Time Temperature Precipitation Wind Pressure Humidity
    00:00 +12°C° 0 mm 2 mps 718 mmHg 75%
    01:00 +12°C° 0 mm 2 mps 718 mmHg 75%
    02:00 +12°C° 0 mm 2 mps 717 mmHg 77%
    03:00 +10°C° 0 mm 2 mps 717 mmHg 78%
    04:00 +10°C° 0 mm 2 mps 717 mmHg 79%
    05:00 +10°C° 0.1 mm 3 mps 717 mmHg 80%
    06:00 +10°C° 0.1 mm 3 mps 717 mmHg 82%
    07:00 +10°C° 0.1 mm 4 mps 717 mmHg 83%
    08:00 +10°C° 0.8 mm 4 mps 717 mmHg 86%
    09:00 +10°C° 0.8 mm 4 mps 717 mmHg 89%
    10:00 +10°C° 0.8 mm 4 mps 717 mmHg 92%
    11:00 +10°C° 0.6 mm 4 mps 717 mmHg 92%
    12:00 +8°C° 0.6 mm 5 mps 717 mmHg 93%
    13:00 +8°C° 0.6 mm 5 mps 717 mmHg 93%
    14:00 +8°C° 0.4 mm 5 mps 717 mmHg 93%
    15:00 +8°C° 0.4 mm 4 mps 717 mmHg 94%
    16:00 +8°C° 0.4 mm 4 mps 717 mmHg 94%
    17:00 +9°C° 0.7 mm 3 mps 717 mmHg 94%
    18:00 +9°C° 0.7 mm 3 mps 716 mmHg 95%
    19:00 +9°C° 0.7 mm 2 mps 716 mmHg 95%
    20:00 +9°C° 0.6 mm 2 mps 716 mmHg 95%
    21:00 +9°C° 0.6 mm 2 mps 717 mmHg 96%
    22:00 +9°C° 0.6 mm 2 mps 717 mmHg 96%
    23:00 +10°C° 0.4 mm 2 mps 717 mmHg 96%

    Day after tomorrow, 24 April, Wednesday

    Time Temperature Precipitation Wind Pressure Humidity
    00:00 +10°C° 0.4 mm 3 mps 717 mmHg 96%
    01:00 +10°C° 0.4 mm 4 mps 717 mmHg 96%
    02:00 +10°C° 0 mm 4 mps 717 mmHg 96%
    03:00 +9°C° 0 mm 5 mps 717 mmHg 95%
    04:00 +9°C° 0 mm 5 mps 717 mmHg 95%
    05:00 +10°C° 0 mm 5 mps 717 mmHg 93%
    06:00 +10°C° 0 mm 6 mps 718 mmHg 91%
    07:00 +11°C° 0 mm 6 mps 718 mmHg 89%
    08:00 +14°C° 0 mm 6 mps 718 mmHg 83%
    09:00 +15°C° 0 mm 7 mps 719 mmHg 76%
    10:00 +17°C° 0 mm 7 mps 719 mmHg 70%
    11:00 +18°C° 0 mm 7 mps 719 mmHg 64%
    12:00 +20°C° 0 mm 8 mps 719 mmHg 58%
    13:00 +21°C° 0 mm 8 mps 720 mmHg 52%
    14:00 +21°C° 0 mm 8 mps 719 mmHg 52%
    15:00 +21°C° 0 mm 8 mps 719 mmHg 51%
    16:00 +21°C° 0 mm 8 mps 719 mmHg 51%
    17:00 +20°C° 0 mm 7 mps 719 mmHg 56%
    18:00 +17°C° 0 mm 7 mps 719 mmHg 61%
    19:00 +15°C° 0 mm 7 mps 719 mmHg 66%
    20:00 +15°C° 0 mm 7 mps 720 mmHg 67%
    21:00 +14°C° 0 mm 7 mps 720 mmHg 69%
    22:00 +14°C° 0 mm 6 mps 720 mmHg 70%
    23:00 +13°C° 0 mm 6 mps 720 mmHg 72%

    25 April, Thursday

    Time Temperature Precipitation Wind Pressure Humidity
    00:00 +13°C° 0 mm 6 mps 720 mmHg 74%
    01:00 +11°C° 0 mm 6 mps 720 mmHg 76%
    02:00 +12°C° 0 mm 5 mps 720 mmHg 77%
    03:00 +12°C° 0 mm 5 mps 721 mmHg 78%
    04:00 +12°C° 0 mm 4 mps 721 mmHg 78%
    05:00 +12°C° 0 mm 4 mps 721 mmHg 76%
    06:00 +13°C° 0 mm 4 mps 721 mmHg 75%
    07:00 +14°C° 0 mm 3 mps 722 mmHg 73%
    08:00 +17°C° 0 mm 4 mps 722 mmHg 65%
    09:00 +19°C° 0 mm 5 mps 722 mmHg 58%
    10:00 +21°C° 0 mm 6 mps 722 mmHg 51%
    11:00 +22°C° 0 mm 7 mps 722 mmHg 49%
    12:00 +23°C° 0 mm 7 mps 722 mmHg 46%
    13:00 +24°C° 0 mm 7 mps 722 mmHg 44%
    14:00 +24°C° 0 mm 7 mps 721 mmHg 45%
    15:00 +23°C° 0 mm 8 mps 721 mmHg 46%
    16:00 +23°C° 0 mm 8 mps 721 mmHg 46%
    17:00 +22°C° 0 mm 7 mps 720 mmHg 50%
    18:00 +20°C° 0 mm 7 mps 720 mmHg 53%
    19:00 +18°C° 0 mm 7 mps 720 mmHg 57%
    20:00 +17°C° 0 mm 7 mps 720 mmHg 58%
    21:00 +16°C° 0 mm 6 mps 721 mmHg 59%
    22:00 +16°C° 0 mm 6 mps 721 mmHg 60%
    23:00 +15°C° 0 mm 6 mps 721 mmHg 62%

    26 April, Friday

    Time Temperature Precipitation Wind Pressure Humidity
    00:00 +15°C° 0 mm 6 mps 720 mmHg 64%
    01:00 +15°C° 0 mm 6 mps 720 mmHg 65%
    02:00 +14°C° 0 mm 6 mps 720 mmHg 67%
    03:00 +14°C° 0 mm 6 mps 720 mmHg 68%
    04:00 +14°C° 0 mm 6 mps 720 mmHg 70%
    05:00 +14°C° 0 mm 5 mps 720 mmHg 69%
    06:00 +15°C° 0 mm 5 mps 720 mmHg 67%
    07:00 +15°C° 0 mm 4 mps 720 mmHg 66%
    08:00 +17°C° 0 mm 5 mps 720 mmHg 62%
    09:00 +19°C° 0 mm 5 mps 720 mmHg 57%
    10:00 +21°C° 0 mm 5 mps 720 mmHg 53%
    11:00 +21°C° 0 mm 5 mps 720 mmHg 50%
    12:00 +22°C° 0 mm 6 mps 720 mmHg 48%
    13:00 +23°C° 0 mm 6 mps 720 mmHg 45%
    14:00 +23°C° 0.1 mm 6 mps 720 mmHg 45%
    15:00 +23°C° 0.1 mm 6 mps 720 mmHg 45%
    16:00 +23°C° 0.1 mm 5 mps 719 mmHg 45%
    17:00 +21°C° 1.1 mm 4 mps 719 mmHg 56%
    18:00 +19°C° 1.1 mm 3 mps 720 mmHg 67%
    19:00 +16°C° 1.1 mm 2 mps 720 mmHg 77%
    20:00 +13°C° 0.9 mm 3 mps 720 mmHg 79%
    21:00 +12°C° 0.9 mm 4 mps 721 mmHg 80%
    22:00 +9°C° 0.9 mm 5 mps 721 mmHg 82%
    23:00 +8°C° 0.2 mm 5 mps 721 mmHg 80%

    27 April, Saturday

    Time Temperature Precipitation Wind Pressure Humidity
    00:00 +8°C° 0.2 mm 5 mps 722 mmHg 79%
    01:00 +8°C° 0.2 mm 5 mps 722 mmHg 77%
    02:00 +8°C° 0.3 mm 5 mps 722 mmHg 78%
    03:00 +8°C° 0.3 mm 5 mps 723 mmHg 79%
    04:00 +7°C° 0.3 mm 5 mps 723 mmHg 80%
    05:00 +7°C° 0.4 mm 5 mps 723 mmHg 81%
    06:00 +7°C° 0.4 mm 5 mps 723 mmHg 82%
    07:00 +7°C° 0.4 mm 4 mps 724 mmHg 83%
    08:00 +8°C° 0.2 mm 5 mps 724 mmHg 81%
    09:00 +8°C° 0.2 mm 6 mps 724 mmHg 79%
    10:00 +8°C° 0.2 mm 7 mps 724 mmHg 77%
    11:00 +9°C° 0.1 mm 7 mps 724 mmHg 76%
    12:00 +9°C° 0.1 mm 7 mps 724 mmHg 74%
    13:00 +10°C° 0.1 mm 6 mps 724 mmHg 72%
    14:00 +10°C° 0.1 mm 6 mps 724 mmHg 71%
    15:00 +11°C° 0.1 mm 7 mps 724 mmHg 70%
    16:00 +11°C° 0.1 mm 7 mps 724 mmHg 69%
    17:00 +11°C° 0 mm 6 mps 725 mmHg 69%
    18:00 +10°C° 0 mm 6 mps 725 mmHg 69%
    19:00 +10°C° 0 mm 6 mps 725 mmHg 68%
    20:00 +10°C° 0 mm 6 mps 725 mmHg 69%
    21:00 +9°C° 0 mm 6 mps 726 mmHg 70%
    22:00 +9°C° 0 mm 6 mps 726 mmHg 71%
    23:00 +9°C° 0 mm 6 mps 726 mmHg 70%
    Show more